COSMOS 1275 DEB, 12749

Orbit data source: Space-Track

COSMOS 1275 DEB, 12749 is space debris in LEO originally from a launch on Thu, 04 Jun 1981 UTC launched from the Plesetsk Missile And Space Complex (PKMTR). Debris objects in space refer to the collection of defunct objects orbiting the Earth. Examples of debris include non-operational satellites, rocket bodies, and fragments generated from explosions, collisions, or faulty payload assembly.

Loading next visibility...
Identifier
12749, 1981-053CS
Orbit
LEO
Country
Flag of CISCIS
Related business
Manufacturer
Unknown
Mission
Spacecraft
Bus & Motor
Unknown
Mass
Unknown
Launch date (UTC)
1981-06-04 (45 years ago)
Launch vehicle
Unknown
Launch site
Plesetsk Missile And Space Complex (PKMTR)
Object type
Payload
Rocket body
Debris
Shape & HBR
Unknown shape, 0.2 m
Radar Cross Section
Medium (>0.1 m² and <1 m²)

Expand to show TLE details & history
Last TLE update: 13 hours ago

TLE from 13 hours ago
0 COSMOS 1275 DEB
1 12749U 81053CS  26150.34297125  .00000415  00000-0  40499-3 0  9996
2 12749  82.8100  88.7476 0060357 229.8313 260.2592 13.76334286243573
Epoch: 2026-05-30T08:13Z
TLE epoch observation values (Epoch: 2026-05-30T08:13:52.716Z)
Latitude
50.14192°
Longitude
-111.22771°
Altitude
992.668 km
Speed
7.356 km/s
True Right ascension
17h 20m 24s
True Declination
49° 58' 41"
Sunlit
Object was in daylight at epoch
Visualization orbit readout
Latitude
Unknown
Longitude
Unknown
Altitude
Unknown
Speed
Unknown
Apparent Right ascension
Unknown
Apparent Declination
Unknown
Sunlit
N/A
Visualization observer readout
Local Sidereal Time
07:02:05
Azimuth
Unknown
Elevation
Unknown
Doppler factor
Unknown
Orbital elements
Apogee altitude
1,018.445 km
Perigee altitude
929.694 km
Semi-major axis
7,352.206 km
Eccentricity
0.00604
Inclination
82.81°
RAAN
88.7476°
Arg. of periapsis
229.8313°
True anomaly
259.57842°
Mean anomaly
260.2592°
Eccentric anomaly
259.91872°
Mean motion
3.44284 °/min
Orbital period
104.56 mins
BSTAR
0.00040499
Loading maneuver chart data...
Computing Atmospheric mass density...
Loading historical data...
Loading historical data...
Loading historical data...
Loading historical data...
Loading historical data...
Loading historical data...
Loading historical data...

Documentation

Showing up to 5 results
|